Location: Arroyo de Valdeoliva
(40.1604°N, 4.9878°W)
Time: 20:34:02
(UTC+00:00)

UNK - Pass Details

Date: 11 December 2025
Orbit: 654 x 673 km, 98.4° (Epoch: 12 January)

Event Time Altitude Azimuth Distance (km) Brightness Sun altitude
Rises 17:30:49 0° 13° (NNE) 3,017 6.7 -7.0°
Reaches altitude 10° 17:33:04 10° 15° (NNE) 2,096 5.9 -7.4°
Maximum altitude 17:37:39 83° 102° (ESE) 673 3.7 -8.2°
Drops below altitude 10° 17:42:10 10° 192° (SSW) 2,068 6.7 -9.0°
Sets 17:44:22 0° 193° (SSW) 2,973 7.6 -9.4°
